Simultaneous Nadir Overpasses (SNOs) Predictions

Prediction of SNOs between NOAA-19 and TERRA Satellite Orbit:

Table of predicted SNOs for the next 14.0 days since TLE Epoch: 3/14/2020
Index Date (NOAA-19) Time (NOAA-19) Lat,Lon (NOAA-19) SZA (NOAA-19 ) Date (TERRA) Time (TERRA) Lat,Lon (TERRA) SZA (TERRA ) Distance(km) Time Diff (sec)
1 03/15/2020 05:58:57 79.24, 117.12 82.11 03/15/2020 05:59:06 79.28, 117.08 82.14 3.62 9
2 03/17/2020 11:32:22 -79.26,-146.26 98.75 03/17/2020 11:32:50 -79.27,-146.39 98.74 3.10 28
3 03/17/2020 12:23:17 79.24, 21.17 81.24 03/17/2020 12:22:16 79.26, 21.22 81.24 2.95 61
4 03/19/2020 17:05:38 79.28, -49.72 80.40 03/19/2020 17:06:32 79.29, -49.70 80.42 0.55 54
5 03/19/2020 17:56:42 -79.26, 117.75 99.62 03/19/2020 17:56:00 -79.26, 117.76 99.64 0.31 42
6 03/21/2020 22:39:03 -79.31, 46.79 100.46 03/21/2020 22:40:16 -79.28, 46.84 100.45 2.94 73
7 03/21/2020 23:29:58 79.28,-145.65 79.53 03/21/2020 23:29:42 79.27,-145.59 79.52 1.47 16
8 03/24/2020 05:03:22 -79.28, -48.95 101.33 03/24/2020 05:03:26 -79.27, -49.03 101.35 2.18 4
9 03/26/2020 10:36:38 79.28, 47.80 77.82 03/26/2020 10:37:07 79.31, 47.83 77.86 3.36 29




NCC Satellite Simultaneous Nadir Overpasses (SNOs) Prediction Service
